Location: Sweet Grass
(48.9965°N, 111.9649°W)
Time: 12:46:14
(UTC+00:00)

Envisat - Pass Details

Date: 12 December 2022
Orbit: 763 x 765 km, 98.2° (Epoch: 06 February)

Event Time Altitude Azimuth Distance (km) Brightness Sun altitude
Rises 13:43:09 0° 360° (N) 3,246 6.0 -13.9°
Reaches altitude 10° 13:46:40 10° 334° (NNW) 2,314 5.1 -13.3°
Enters shadow 13:47:07 11° 329° (NNW) 2,239 5.0 -13.2°
